Regional Weather Roundup
Issued by NWS

Home | Current Version | Previous Version | Text Only | Print | Product List | Glossary On
Versions: 1 2 3 4 5 6 7 8 9 10 11 12 13 14 15 16 17 18 19 20 21 22 23 24 25 26 27 28 29 30 31 32 33 34 35 36 37 38 39 40 41 42 43 44 45 46 47 48 49 50
000
ASUS43 KBIS 221959
RWRND

NORTH DAKOTA REGIONAL WEATHER ROUNDUP
NATIONAL WEATHER SERVICE BISMARCK ND
300 PM CDT TUE JUL 22 2014

NOTE: "FAIR" INDICATES FEW OR NO CLOUDS BELOW 12,000 FEET WITH NO
SIGNIFICANT WEATHER AND/OR OBSTRUCTIONS TO VISIBILITY.


NDZ001>003-009>011-017-222100-
NORTHWEST NORTH DAKOTA

CITY           SKY/WX    TMP DP  RH WIND       PRES   REMARKS
WILLISTON      MOSUNNY   86  54  33 MISG      30.17S
MINOT          MOSUNNY   78  60  53 N5        30.20R
$$

NDZ018>021-031>035-040>046-222100-
SOUTHWEST NORTH DAKOTA

CITY           SKY/WX    TMP DP  RH WIND       PRES   REMARKS
BISMARCK       PTSUNNY   79  62  56 W8        30.21R
GARRISON         N/A     76  62  62 VRB5      30.20F
HETTINGER ARPT MOSUNNY   81  62  52 E12G21    30.22S
$$

NDZ004>008-012>016-024-026-027-054-222100-
NORTHEAST NORTH DAKOTA

CITY           SKY/WX    TMP DP  RH WIND       PRES   REMARKS
GRAND FORKS    SUNNY     76  58  53 N13G20    30.16R
DEVILS LAKE    SUNNY     75  55  50 N5        30.18S
$$

NDZ022-023-025-028>030-036>039-047>053-222100-
SOUTHEAST NORTH DAKOTA

CITY           SKY/WX    TMP DP  RH WIND       PRES   REMARKS
FARGO          SUNNY     78  57  48 NW17G25   30.15R
$$



USA.gov is the U.S. government's official web portal to all federal, state and local government web resources and services.